DW7447 Weather Reports


Display with metric or nautical units.
time (UTC)temp
F
wind
direction
speed
MPH
gust
MPH
rain 1hr
in
rain 24hr
in
rain mn
in
humidity
%
barometer
mb
20260508090634 59 248 3.0 11.0 0.00 0.00 0.00 70 1016.8
20260508090133 59 275 3.0 11.0 0.00 0.00 0.00 69 1016.7
20260508085632 58 255 4.0 13.0 0.00 0.00 0.00 70 1016.8
20260508085132 58 250 5.0 13.0 0.00 0.00 0.00 71 1016.8
20260508084634 57 221 5.0 12.0 0.00 0.00 0.00 73 1016.9
20260508084138 56 176 5.0 9.0 0.00 0.00 0.00 75 1016.9
20260508083633 55 178 3.0 8.0 0.00 0.00 0.00 76 1016.8
20260508083133 55 235 4.0 9.0 0.00 0.00 0.00 77 1016.8
20260508082633 55 193 5.0 11.0 0.00 0.00 0.00 77 1016.9
20260508082133 54 176 4.0 12.0 0.00 0.00 0.00 78 1016.8
20260508081634 54 183 6.0 12.0 0.00 0.00 0.00 80 1016.8
20260508081134 53 219 1.0 8.0 0.00 0.00 0.00 81 1016.8
20260508080634 53 149 4.0 8.0 0.00 0.00 0.00 81 1016.7
20260508080132 53 164 4.0 11.0 0.00 0.00 0.00 81 1016.7
20260508075632 53 185 5.0 11.0 0.00 0.00 0.00 81 1016.7
20260508075132 53 186 4.0 9.0 0.00 0.00 0.00 81 1016.7
20260508074634 53 214 6.0 13.0 0.00 0.00 0.00 80 1016.6
20260508073635 53 234 5.0 9.0 0.00 0.00 0.00 80 1016.6
20260508073134 53 203 5.0 9.0 0.00 0.00 0.00 80 1016.6
20260508072634 53 233 6.0 9.0 0.00 0.00 0.00 79 1016.4
20260508072133 53 275 3.0 11.0 0.00 0.00 0.00 79 1016.4
20260508071635 53 223 7.0 15.0 0.00 0.00 0.00 79 1016.3
20260508071136 53 172 5.0 15.0 0.00 0.00 0.00 79 1016.2
20260508070134 52 210 6.0 16.0 0.00 0.00 0.00 79 1016.1
20260508065633 52 171 9.0 16.0 0.00 0.00 0.00 79 1016.0
20260508065133 52 196 7.0 14.0 0.00 0.00 0.00 79 1015.9
20260508064632 52 220 6.0 15.0 0.00 0.00 0.00 80 1015.8
20260508064133 51 197 8.0 15.0 0.00 0.00 0.00 80 1015.7
20260508063633 51 220 8.0 15.0 0.00 0.00 0.00 81 1015.7
20260508062633 51 202 7.0 15.0 0.00 0.00 0.00 82 1015.6
20260508062133 50 172 7.0 14.0 0.00 0.00 0.00 83 1015.5
20260508061633 50 159 6.0 14.0 0.00 0.00 0.00 84 1015.4
20260508061133 50 200 7.0 15.0 0.00 0.00 0.00 84 1015.5
20260508060632 50 189 6.0 15.0 0.00 0.00 0.00 84 1015.5
20260508060135 50 155 7.0 15.0 0.00 0.00 0.00 84 1015.5
20260508055633 50 195 6.0 16.0 0.00 0.00 0.00 84 1015.4
20260508054634 50 176 5.0 16.0 0.00 0.00 0.00 84 1015.4
20260508054135 50 186 6.0 16.0 0.00 0.00 0.00 84 1015.3
20260508053632 50 182 9.0 16.0 0.00 0.00 0.00 84 1015.3
20260508053133 50 189 8.0 14.0 0.00 0.00 0.00 84 1015.3
20260508052634 49 186 9.0 14.0 0.00 0.00 0.00 84 1015.2
20260508052133 49 158 8.0 14.0 0.00 0.00 0.00 85 1015.2
20260508051632 49 182 7.0 14.0 0.00 0.00 0.00 84 1015.3
20260508050634 49 175 9.0 16.0 0.00 0.00 0.00 85 1015.3
20260508050135 49 169 8.0 16.0 0.00 0.00 0.00 85 1015.3
20260508045633 49 173 9.0 14.0 0.00 0.00 0.00 85 1015.2
20260508045134 49 195 9.0 15.0 0.00 0.00 0.00 85 1015.3
20260508044632 49 171 6.0 15.0 0.00 0.00 0.00 85 1015.2
20260508044133 49 178 7.0 13.0 0.00 0.00 0.00 85 1015.2
20260508043133 49 159 6.0 12.0 0.00 0.00 0.00 85 1015.1
20260508042133 49 179 6.0 13.0 0.00 0.00 0.00 85 1015.2
20260508041134 48 175 7.0 14.0 0.00 0.00 0.00 85 1015.2
20260508040634 48 190 7.0 12.0 0.00 0.00 0.00 85 1015.1
20260508040134 48 204 6.0 12.0 0.00 0.00 0.00 85 1015.1
20260508035635 48 165 5.0 9.0 0.00 0.00 0.00 85 1015.1
20260508035133 48 203 5.0 9.0 0.00 0.00 0.00 84 1015.1
20260508034635 49 175 3.0 11.0 0.00 0.00 0.00 84 1015.1
20260508034135 49 196 5.0 11.0 0.00 0.00 0.00 84 1015.0
20260508033633 49 179 6.0 15.0 0.00 0.00 0.00 84 1015.0
20260508033134 49 206 7.0 15.0 0.00 0.00 0.00 84 1015.0
20260508032133 49 188 5.0 12.0 0.00 0.00 0.00 84 1015.0
20260508031636 49 180 5.0 11.0 0.00 0.00 0.00 83 1015.0
20260508031133 49 166 5.0 14.0 0.00 0.00 0.00 83 1014.9
20260508030632 50 173 7.0 17.0 0.00 0.00 0.00 83 1015.0
20260508030132 50 185 9.0 17.0 0.00 0.00 0.00 82 1014.9
20260508025633 50 183 6.0 12.0 0.00 0.00 0.00 82 1014.8
20260508025134 50 173 7.0 13.0 0.00 0.00 0.00 82 1014.8
20260508024634 50 192 6.0 13.0 0.00 0.00 0.00 82 1014.9
20260508024134 50 176 7.0 15.0 0.00 0.00 0.00 82 1014.9
20260508023133 50 168 7.0 14.0 0.00 0.00 0.00 82 1014.9
20260508022634 50 158 8.0 14.0 0.00 0.00 0.00 82 1015.0
20260508021633 50 172 6.0 14.0 0.00 0.00 0.00 81 1014.9
20260508021133 50 202 6.0 14.0 0.00 0.00 0.00 81 1015.0
20260508020630 51 213 9.0 17.0 0.00 0.00 0.00 82 1014.9
20260508020104 51 164 9.0 17.0 0.00 0.00 0.00 81 1014.9
20260508015603 51 149 9.0 15.0 0.00 0.00 0.00 82 1014.8
20260508015103 51 226 8.0 14.0 0.00 0.00 0.00 82 1014.9
20260508014604 51 210 8.0 16.0 0.00 0.00 0.00 81 1014.9
20260508014104 51 168 9.0 16.0 0.00 0.00 0.00 82 1014.8
20260508013104 50 176 10.0 19.0 0.00 0.00 0.00 81 1014.9
20260508012104 50 207 9.0 17.0 0.00 0.00 0.00 81 1014.9
20260508011602 50 158 7.0 15.0 0.00 0.00 0.00 81 1014.9
20260508011032 50 171 7.0 16.0 0.00 0.00 0.00 81 1014.9
20260508010532 51 151 9.0 16.0 0.00 0.00 0.00 81 1014.9
20260508010034 51 135 9.0 16.0 0.00 0.00 0.00 80 1014.8
20260508005532 51 188 5.0 17.0 0.00 0.00 0.00 80 1014.9
20260508005033 51 169 9.0 17.0 0.00 0.00 0.00 80 1015.0
20260508004534 51 206 9.0 21.0 0.00 0.00 0.00 80 1015.0
20260508004033 51 183 13.0 21.0 0.00 0.00 0.00 80 1015.1
20260508003532 51 168 9.0 18.0 0.00 0.00 0.00 79 1015.0
20260508003035 51 164 8.0 17.0 0.00 0.00 0.00 79 1015.1
20260508002533 51 159 10.0 18.0 0.00 0.00 0.00 79 1015.1
20260508002033 51 171 11.0 18.0 0.00 0.00 0.00 78 1015.1
20260508001033 51 180 6.0 17.0 0.00 0.00 0.00 78 1015.2
20260508000532 51 161 7.0 17.0 0.00 0.00 0.00 78 1015.1
20260508000032 51 203 10.0 17.0 0.00 0.00 0.00 78 1015.3
20260507235534 51 175 9.0 19.0 0.00 0.00 0.00 78 1015.3
20260507235035 51 176 9.0 19.0 0.00 0.00 0.00 78 1015.1
20260507234533 51 178 8.0 17.0 0.00 0.00 0.00 78 1015.1
20260507234035 51 166 8.0 17.0 0.00 0.00 0.00 79 1015.1
20260507233033 51 176 10.0 21.0 0.00 0.00 0.00 78 1015.1
20260507232533 51 180 6.0 21.0 0.00 0.00 0.00 79 1015.0
20260507232034 51 188 10.0 22.0 0.00 0.00 0.00 79 1015.1
20260507231533 51 145 11.0 22.0 0.00 0.00 0.00 79 1015.1
20260507231032 51 172 10.0 18.0 0.00 0.00 0.00 79 1015.1
20260507230532 51 164 8.0 18.0 0.00 0.00 0.00 79 1015.1
20260507225533 51 152 8.0 19.0 0.00 0.00 0.00 79 1015.1
20260507225033 51 210 7.0 17.0 0.00 0.00 0.00 79 1015.0
20260507224535 51 175 6.0 18.0 0.00 0.00 0.00 79 1015.1
20260507224034 51 192 13.0 18.0 0.00 0.00 0.00 79 1014.9
20260507223532 51 173 10.0 18.0 0.00 0.00 0.00 79 1014.8
20260507223033 51 141 11.0 16.0 0.00 0.00 0.00 79 1014.9
20260507222533 51 141 7.0 20.0 0.00 0.00 0.00 79 1014.9
20260507222034 51 159 7.0 20.0 0.00 0.00 0.00 79 1015.0
20260507221532 51 135 9.0 16.0 0.00 0.00 0.00 79 1015.0
20260507221033 51 157 9.0 17.0 0.00 0.00 0.00 78 1014.9
20260507220033 51 141 8.0 21.0 0.00 0.00 0.00 78 1015.1
20260507215535 51 189 10.0 21.0 0.00 0.00 0.00 77 1015.1
20260507215032 51 152 10.0 18.0 0.00 0.00 0.00 77 1015.1
20260507214032 51 121 8.0 16.0 0.00 0.00 0.00 77 1015.1
20260507213532 51 158 6.0 14.0 0.00 0.00 0.00 77 1015.2
20260507213036 51 142 8.0 16.0 0.00 0.00 0.00 77 1015.1
20260507212535 51 147 7.0 19.0 0.00 0.00 0.00 77 1015.1
20260507212033 51 144 10.0 19.0 0.00 0.00 0.00 77 1015.0
20260507211033 52 178 6.0 17.0 0.00 0.00 0.00 78 1015.1
20260507210534 52 165 10.0 17.0 0.00 0.00 0.00 77 1015.0
20260507210029 52 130 6.0 16.0 0.00 0.00 0.00 77 1015.1
20260507205532 52 155 8.0 16.0 0.00 0.00 0.00 77 1014.9
20260507205032 52 149 9.0 17.0 0.00 0.00 0.00 77 1014.9
20260507204533 51 145 9.0 17.0 0.00 0.00 0.00 78 1014.9
20260507203532 51 137 9.0 18.0 0.00 0.00 0.00 79 1014.9
20260507202532 51 140 8.0 22.0 0.00 0.00 0.00 79 1014.9
20260507202032 52 165 6.0 14.0 0.00 0.00 0.00 79 1014.8
20260507201532 52 123 10.0 14.0 0.00 0.00 0.00 79 1014.8
20260507201033 52 148 8.0 17.0 0.00 0.00 0.00 79 1014.8
20260507200034 52 147 7.0 14.0 0.00 0.00 0.00 77 1014.8
20260507195533 52 103 8.0 14.0 0.00 0.00 0.00 77 1014.7
20260507195034 52 133 7.0 14.0 0.00 0.00 0.00 77 1014.7
20260507194532 52 110 8.0 14.0 0.00 0.00 0.00 77 1014.6
20260507194035 53 173 6.0 15.0 0.00 0.00 0.00 77 1014.5
20260507193535 53 155 9.0 15.0 0.00 0.00 0.00 77 1014.5
20260507193040 53 127 6.0 11.0 0.00 0.00 0.00 77 1014.4
20260507192037 53 130 8.0 14.0 0.00 0.00 0.00 77 1014.5
20260507191533 53 152 6.0 17.0 0.00 0.00 0.00 77 1014.6
20260507191033 53 165 6.0 17.0 0.00 0.00 0.00 76 1014.5
20260507190532 53 134 7.0 15.0 0.00 0.00 0.00 76 1014.5
20260507190032 54 114 5.0 14.0 0.00 0.00 0.00 76 1014.6
20260507185033 54 154 4.0 11.0 0.00 0.00 0.00 75 1014.4
20260507184532 54 140 5.0 13.0 0.00 0.00 0.00 74 1014.4
20260507183533 55 138 4.0 13.0 0.00 0.00 0.00 71 1014.2
20260507183033 55 59 7.0 13.0 0.00 0.00 0.00 71 1014.2
20260507182034 55 134 5.0 13.0 0.00 0.00 0.00 69 1014.2
20260507181533 55 154 7.0 12.0 0.00 0.00 0.00 68 1014.2
20260507181035 56 155 4.0 13.0 0.00 0.00 0.00 68 1014.2
20260507180534 56 121 5.0 13.0 0.00 0.00 0.00 67 1014.2
20260507180033 56 158 5.0 13.0 0.00 0.00 0.00 65 1014.3
20260507175540 56 155 5.0 16.0 0.00 0.00 0.00 65 1014.4
20260507175036 56 141 5.0 16.0 0.00 0.00 0.00 63 1014.3
20260507174533 56 168 5.0 11.0 0.00 0.00 0.00 64 1014.4
20260507174033 56 186 5.0 11.0 0.00 0.00 0.00 64 1014.4
20260507173533 56 204 3.0 9.0 0.00 0.00 0.00 64 1014.4
20260507173033 56 183 4.0 9.0 0.00 0.00 0.00 64 1014.3
20260507172533 56 178 3.0 12.0 0.00 0.00 0.00 64 1014.3
20260507172033 56 190 6.0 12.0 0.00 0.00 0.00 64 1014.4
20260507171533 56 196 5.0 11.0 0.00 0.00 0.00 63 1014.3
20260507171034 56 182 6.0 12.0 0.00 0.00 0.00 63 1014.3
20260507170533 56 192 7.0 12.0 0.00 0.00 0.00 63 1014.4
20260507165532 56 199 8.0 14.0 0.00 0.00 0.00 64 1014.5
20260507165033 56 193 6.0 11.0 0.00 0.00 0.00 64 1014.6
20260507164532 56 200 4.0 12.0 0.00 0.00 0.00 64 1014.6
20260507164034 56 185 6.0 12.0 0.00 0.00 0.00 63 1014.6
20260507163533 56 206 5.0 12.0 0.00 0.00 0.00 64 1014.5
20260507163032 56 217 5.0 12.0 0.00 0.00 0.00 63 1014.5
20260507162534 56 190 4.0 11.0 0.00 0.00 0.00 63 1014.5
20260507161535 55 213 5.0 9.0 0.00 0.00 0.00 63 1014.6
20260507161033 55 161 3.0 11.0 0.00 0.00 0.00 63 1014.6
20260507160535 55 196 6.0 15.0 0.00 0.00 0.00 63 1014.6
20260507155533 55 182 7.0 13.0 0.00 0.00 0.00 61 1014.6
20260507155034 55 202 6.0 14.0 0.00 0.00 0.00 61 1014.7
20260507154032 55 189 6.0 13.0 0.00 0.00 0.00 61 1014.7
20260507153534 56 171 7.0 15.0 0.00 0.00 0.00 61 1014.7
20260507153030 56 200 9.0 15.0 0.00 0.00 0.00 61 1014.8
20260507152529 56 203 7.0 13.0 0.00 0.00 0.00 62 1014.8
20260507152029 55 179 9.0 16.0 0.00 0.00 0.00 61 1014.8
20260507151529 55 202 6.0 16.0 0.00 0.00 0.00 63 1014.8
20260507151030 55 209 9.0 16.0 0.00 0.00 0.00 64 1014.8
20260507150531 55 202 7.0 18.0 0.00 0.00 0.00 64 1014.9
20260507145504 55 188 8.0 17.0 0.00 0.00 0.00 63 1014.8
20260507145004 55 172 10.0 17.0 0.00 0.00 0.00 63 1014.9
20260507144504 55 195 8.0 14.0 0.00 0.00 0.00 64 1014.9
20260507144004 55 166 4.0 11.0 0.00 0.00 0.00 64 1014.9
20260507143433 55 183 7.0 14.0 0.00 0.00 0.00 64 1014.9
20260507142933 55 196 10.0 14.0 0.00 0.00 0.00 64 1015.0
20260507142431 55 197 8.0 14.0 0.00 0.00 0.00 65 1015.0
20260507141931 55 155 6.0 19.0 0.00 0.00 0.00 65 1015.1
20260507141430 55 192 9.0 19.0 0.00 0.00 0.00 64 1015.1
20260507140930 55 172 6.0 16.0 0.00 0.00 0.00 64 1015.0
20260507140430 55 192 9.0 18.0 0.00 0.00 0.00 63 1015.0
20260507135932 55 173 7.0 18.0 0.00 0.00 0.00 62 1015.2
20260507134930 56 135 7.0 20.0 0.00 0.00 0.00 61 1015.2
20260507134431 56 176 12.0 18.0 0.00 0.00 0.00 62 1015.2
20260507133929 56 185 9.0 17.0 0.00 0.00 0.00 61 1015.2
20260507133433 56 189 8.0 18.0 0.00 0.00 0.00 61 1015.3
20260507132931 56 169 11.0 19.0 0.00 0.00 0.00 62 1015.2
20260507132431 56 168 11.0 19.0 0.00 0.00 0.00 60 1015.2
20260507131932 56 168 12.0 19.0 0.00 0.00 0.00 60 1015.2
20260507130431 57 140 9.0 20.0 0.00 0.00 0.00 61 1015.2
20260507125930 57 144 8.0 20.0 0.00 0.00 0.00 60 1015.1
20260507124931 57 200 10.0 20.0 0.00 0.00 0.00 60 1015.2
20260507124432 57 199 10.0 20.0 0.00 0.00 0.00 60 1015.2
20260507123932 57 203 12.0 20.0 0.00 0.00 0.00 60 1015.2
20260507122932 57 186 7.0 16.0 0.00 0.00 0.00 62 1015.0
20260507122430 57 235 9.0 19.0 0.00 0.00 0.00 62 1015.2
20260507121930 57 226 10.0 19.0 0.00 0.00 0.00 63 1015.2
20260507121429 57 245 8.0 15.0 0.00 0.00 0.00 62 1015.2
20260507120933 56 197 7.0 17.0 0.00 0.00 0.00 63 1015.2
20260507120430 56 188 9.0 17.0 0.00 0.00 0.00 64 1015.2
20260507115930 56 219 8.0 15.0 0.00 0.00 0.00 64 1015.3
20260507115430 56 178 9.0 16.0 0.00 0.00 0.00 64 1015.3
20260507114429 57 190 9.0 19.0 0.00 0.00 0.00 61 1015.3
20260507113931 56 154 6.0 18.0 0.00 0.00 0.00 65 1015.3
20260507113433 56 185 10.0 18.0 0.00 0.00 0.00 64 1015.2
20260507112430 53 196 11.0 17.0 0.00 0.00 0.00 71 1015.3
20260507111933 53 202 8.0 17.0 0.00 0.00 0.00 72 1015.3
20260507110931 52 227 5.0 16.0 0.00 0.00 0.00 74 1015.3
20260507110431 51 186 8.0 16.0 0.00 0.00 0.00 74 1015.5
20260507105932 51 228 6.0 16.0 0.00 0.00 0.00 75 1015.5
20260507105433 51 185 9.0 16.0 0.00 0.00 0.00 76 1015.5
20260507104934 51 228 6.0 15.0 0.00 0.00 0.00 75 1015.5
20260507104430 50 200 6.0 15.0 0.00 0.00 0.00 75 1015.6
20260507103931 50 193 7.0 12.0 0.00 0.00 0.00 76 1015.6
20260507103431 51 216 6.0 15.0 0.00 0.00 0.00 75 1015.6
20260507102931 50 166 9.0 19.0 0.00 0.00 0.00 75 1015.6
20260507102432 51 162 6.0 19.0 0.00 0.00 0.00 75 1015.6
20260507101931 51 173 8.0 14.0 0.00 0.00 0.00 75 1015.5
20260507101431 50 175 5.0 19.0 0.00 0.00 0.00 75 1015.6
20260507100931 51 193 9.0 21.0 0.00 0.00 0.00 74 1015.6
20260507095932 50 204 8.0 14.0 0.00 0.00 0.00 74 1015.7
20260507095432 50 231 6.0 19.0 0.00 0.00 0.00 75 1015.6
20260507094933 50 223 10.0 19.0 0.00 0.00 0.00 75 1015.6
20260507094432 49 197 11.0 17.0 0.00 0.00 0.00 76 1015.6
20260507093930 49 213 10.0 17.0 0.00 0.00 0.00 76 1015.6
20260507092930 49 231 11.0 16.0 0.00 0.00 0.00 77 1015.7
20260507092432 49 217 7.0 19.0 0.00 0.00 0.00 78 1015.6
20260507091930 49 162 8.0 19.0 0.00 0.00 0.00 79 1015.6
20260507091433 49 214 6.0 17.0 0.00 0.00 0.00 79 1015.5